Location: Newark
(7.0858°N, 171.3717°E)
Time: 08:00:04
(UTC+00:00)

Courier 1B - Pass Details

Date: 28 November 2020
Orbit: 962 x 1209 km, 28.3° (Epoch: 20 January)

Event Time Altitude Azimuth Distance (km) Brightness Sun altitude
Rises 06:59:03 0° 231° (SW) 3,635 12.1 -11.0°
Reaches altitude 10° 07:01:44 10° 227° (SW) 2,684 11.0 -11.7°
Maximum altitude 07:08:02 56° 149° (SSE) 1,132 7.8 -13.1°
Enters shadow 07:12:41 19° 77° (ENE) 2,136 8.6 -14.2°
Drops below altitude 10° 07:14:29 10° 72° (ENE) 2,743 - -14.6°
Sets 07:17:15 0° 68° (ENE) 3,721 - -15.3°
